meum est propositum in taberna mori  **

METAR

Ronaldsway Weather

EGNS 241150Z 21013KT 9999 FEW012 SCT020 BKN040 15/12 Q1010 NOSIG

 

TAF TAF EGNS 090800Z 0909/0921 29012KT 9999 SCT018

 

 

I know some visitors found the previous airfield selection useful but this website has been updated to use a WordPress framework and the previous version is not compatible with either the latest version of  PHP or WordPress itself. This plugin is under development and airfield selection may become a feature in the future. In the meantime if anyone has a locator that they use regularly you can email me and request its addition here.

www.iom.org © James Family